Location: Hurstbourne Priors
(51.2000°N, 1.3667°W)
Time: 22:05:25
(UTC+00:00)

Altair - Pass Details

Date: 19 April 2021
Orbit: 1501 x 1683 km, 47.2° (Epoch: 13 May)

Event Time Altitude Azimuth Distance (km) Brightness Sun altitude
Rises 05:22:17 0° 210° (SSW) 4,879 9.7 2.2°
Reaches altitude 10° 05:25:49 10° 202° (SSW) 3,873 9.3 2.8°
Maximum altitude 05:34:19 35° 142° (SE) 2,395 8.9 4.1°
Drops below altitude 10° 05:42:34 10° 82° (E) 3,758 12.6 5.3°
Sets 05:45:55 0° 73° (ENE) 4,719 12.7 5.9°
